Temperature
23 20 19 20 20 21 21 20 20 21 22 21 20 20 19 20 21 21 20 20 20 19 18 18 17 17 16 16 15 15 14 14 14 13 13 13 13 13 13 13 13 13 13 13
21 21 21 21 21 21 21 21 21 22 23 22 21 21 20 20 20 21 21 20 20 19 18 18 17 17 16 16 15 15 14 14 13 13 13 13 13 13 13 13 13 13 13 13
21 21 22 22 22 22 21 21 22 22 23 22 22 20 20 20 21 21 21 21 20 19 18 18 17 17 16 16 15 15 14 14 13 13 13 13 13 13 13 13 13 12 12 13
20 22 23 22 22 21 21 22 23 23 20 19 21 19 19 19 19 19 20 20 20 19 19 18 18 17 16 16 15 15 14 13 13 13 13 13 13 12 12 12 12 12 12 12
21 22 22 22 23 22 22 23 23 22 21 19 19 19 18 19 19 19 19 20 20 19 19 18 18 17 17 16 15 15 14 14 13 13 13 13 13 12 12 12 12 12 12 12
21 22 22 22 23 23 23 21 20 17 17 18 19 18 19 17 18 19 19 20 20 19 19 18 18 17 17 16 15 15 14 14 13 13 13 13 13 12 12 12 12 12 12 12
21 22 23 23 23 23 21 18 18 18 17 17 19 19 18 19 19 19 19 20 20 20 19 18 18 17 17 16 16 15 15 14 14 13 13 13 13 13 12 12 12 12 12 12
20 21 23 24 23 22 21 18 18 19 18 18 20 19 19 20 20 21 21 21 20 20 19 19 18 18 17 16 16 15 15 14 14 14 13 13 13 13 12 12 12 12 12 12
20 21 23 24 24 23 21 19 18 17 18 18 18 19 20 20 19 19 20 20 20 20 19 19 18 18 17 17 16 16 15 15 14 14 14 13 13 13 12 12 12 12 12 12
21 21 22 23 23 23 21 19 16 18 18 18 19 19 17 19 19 19 18 19 20 20 19 19 18 18 17 17 16 16 15 15 15 14 14 13 13 13 13 12 12 12 12 12
21 20 21 22 22 21 22 21 17 15 16 17 18 18 18 18 18 18 18 20 20 20 20 19 19 18 17 17 16 16 16 15 15 14 14 14 13 13 13 12 12 12 12 12
20 18 18 20 21 21 21 21 17 18 18 16 16 17 19 18 19 19 20 21 21 20 20 19 19 18 17 17 17 16 16 16 15 15 14 14 13 13 13 12 12 12 12 11
20 18 18 19 20 21 22 21 18 16 16 15 16 18 19 19 19 21 21 21 21 21 20 19 19 18 18 17 17 17 16 16 15 15 15 14 14 13 13 13 12 12 12 11
19 18 18 19 20 20 21 21 20 17 16 17 17 18 20 19 19 20 21 21 21 20 20 19 19 18 18 17 17 17 16 16 16 16 15 15 14 14 13 13 12 12 12 12
19 19 20 20 20 20 20 21 20 19 17 17 19 20 19 19 18 20 21 21 21 20 20 20 19 19 18 18 17 17 17 16 16 16 16 15 15 14 14 14 13 13 12 12
18 20 21 21 21 21 21 21 20 20 19 18 19 19 19 20 21 21 21 21 21 21 20 20 19 19 18 18 18 17 17 17 17 16 16 16 15 15 15 14 14 13 13 12
17 19 19 18 19 21 20 20 20 20 20 19 19 19 19 19 19 21 21 21 21 21 21 20 20 19 19 18 18 18 18 17 17 17 17 16 16 15 15 15 14 14 13 13
17 17 16 17 19 20 20 20 21 20 20 19 20 19 19 20 22 22 22 22 21 21 21 20 20 19 19 19 18 18 18 18 17 17 17 17 16 16 16 15 15 14 14 13
17 17 16 16 18 18 20 21 21 20 20 20 20 20 20 22 21 20 21 21 21 21 21 20 20 19 19 19 18 18 18 18 18 17 17 17 17 16 16 16 15 15 14 14
16 16 16 16 18 18 20 21 23 21 21 20 20 20 20 19 17 18 21 21 21 20 20 20 19 19 19 19 18 18 18 18 17 17 17 17 17 16 16 16 15 15 15 14
18 17 16 16 17 17 19 21 22 21 20 22 22 22 21 20 21 22 21 21 21 20 20 19 19 19 19 18 18 18 18 18 17 17 17 17 16 16 16 16 15 15 15 15
17 16 15 14 16 18 20 22 21 21 23 24 23 24 23 23 23 22 21 21 20 20 19 19 19 19 18 18 18 18 18 17 17 17 17 16 16 16 16 15 15 15 15 15
16 17 16 16 18 20 22 23 25 25 24 25 24 24 24 23 22 21 21 20 20 19 19 19 19 18 18 18 18 17 17 17 17 16 16 16 16 15 15 15 15 15 15 14
16 17 17 16 17 19 22 24 25 25 25 25 25 24 24 23 22 21 21 20 20 19 19 19 18 18 18 17 17 17 17 17 16 16 16 16 15 15 15 14 14 14 14 14
17 18 17 17 17 20 22 23 25 25 25 25 24 24 24 23 22 21 21 20 20 19 18 18 18 18 17 17 17 16 16 16 16 15 15 15 14 14 14 13 13 13 13 13
16 17 17 17 19 18 22 24 24 24 24 24 24 23 23 23 22 21 21 20 19 19 18 18 17 17 17 16 16 16 16 15 15 14 14 13 13 13 13 13 13 12 12 12
Wind_Speed
5 5 5 7 8 9 8 5 4 5 6 8 9 8 10 11 9 8 7 8 9 9 7 7 7 7 6 6 6 5 4 3 3 3 3 3 4 4 4 3 5 6 7 7
3 4 7 8 9 8 5 4 2 2 5 7 7 7 9 11 11 10 10 10 10 9 8 7 7 6 6 6 6 5 4 3 2 1 0 0 1 2 2 3 5 6 6 5
7 5 7 8 8 6 3 6 6 5 1 1 2 4 3 6 6 6 7 10 11 13 12 9 8 7 7 6 6 5 4 3 1 1 2 3 3 4 4 5 5 5 6 4
3 3 5 6 6 6 5 6 6 5 3 3 2 2 5 6 6 7 8 9 11 11 10 9 9 8 8 6 6 6 4 3 1 1 2 2 1 2 3 3 3 5 5 5
4 4 4 5 6 7 8 5 3 2 3 2 1 4 6 4 7 8 8 9 11 11 12 11 10 9 8 7 6 5 4 3 1 1 1 1 0 1 2 3 4 5 5 5
2 2 5 6 3 5 5 5 7 6 5 2 5 6 5 6 10 9 8 9 10 11 10 10 8 8 7 6 5 5 4 3 2 1 1 2 1 1 2 3 4 4 4 4
2 2 1 4 4 2 6 6 5 4 4 6 3 5 8 7 7 10 10 10 10 11 10 10 9 9 8 7 6 5 5 4 4 3 2 2 2 2 1 1 2 3 3 3
3 2 3 3 6 6 4 9 7 4 4 5 2 3 5 3 5 7 9 10 10 10 10 11 10 9 8 9 7 6 6 5 4 4 3 2 3 2 2 2 2 2 2 3
5 3 2 1 3 7 6 4 8 6 2 2 4 2 4 1 3 5 7 9 10 11 11 11 10 9 9 9 8 8 7 5 5 5 4 3 3 3 3 2 2 2 3 3
6 3 2 1 5 4 6 8 6 4 2 2 3 3 6 8 9 7 8 10 10 10 10 10 9 9 8 8 7 7 6 6 5 5 4 2 3 3 2 1 2 3 3 3
5 5 1 1 4 6 3 3 5 4 5 5 3 6 7 12 11 10 11 10 10 10 10 10 9 9 8 7 6 6 6 5 4 4 3 2 2 2 1 1 2 2 2 3
4 5 2 6 6 6 6 6 7 4 3 4 3 7 6 10 10 10 10 10 9 10 10 9 9 8 7 7 6 6 6 5 5 5 4 4 3 2 1 1 2 1 1 2
6 6 3 5 5 1 4 6 7 6 5 4 4 7 3 4 7 8 9 9 9 9 9 8 8 8 8 7 7 7 6 6 5 5 5 4 3 2 3 3 2 1 1 2
6 5 6 8 7 6 6 7 7 7 5 5 7 7 4 7 8 8 8 9 9 9 10 9 8 8 8 8 7 7 7 7 6 6 5 5 4 4 4 4 3 2 1 1
6 4 6 7 7 6 8 9 10 9 10 9 8 7 9 11 12 10 9 8 8 8 9 10 10 9 8 7 7 7 7 7 7 6 6 6 6 5 4 4 3 3 2 2
4 4 2 4 4 5 7 10 12 11 9 9 7 8 9 7 7 7 9 9 9 10 10 11 10 10 9 9 8 8 8 8 7 7 7 7 6 5 5 5 4 3 3 3
5 6 3 5 6 3 7 11 13 10 9 11 12 11 5 6 9 10 10 10 10 10 10 11 11 10 10 9 9 10 9 8 7 7 7 7 7 6 6 5 4 4 5 4
8 7 4 2 3 6 10 7 10 13 12 11 9 9 12 11 10 9 9 10 9 8 8 9 9 8 8 8 8 8 7 7 7 7 7 7 7 7 6 5 6 6 4 5
8 9 5 4 4 8 10 9 8 11 11 11 12 11 11 7 6 1 6 8 8 8 7 7 7 6 6 6 6 6 5 5 5 6 7 7 8 7 7 7 7 6 5 5
5 6 6 5 4 6 10 10 5 7 6 7 13 13 11 11 6 6 6 7 7 7 6 6 6 5 5 4 6 6 4 3 4 6 7 7 7 7 8 8 7 5 5 6
3 3 5 6 6 8 10 7 5 7 9 6 12 12 14 12 9 8 9 8 8 7 7 7 7 5 4 4 6 6 3 1 4 4 3 4 5 6 7 6 5 6 6 6
9 7 7 6 5 10 9 3 7 9 5 4 10 11 12 9 8 10 10 9 9 7 7 8 7 5 3 4 6 6 2 2 2 1 1 2 3 4 4 5 6 5 5 6
8 10 8 10 10 10 7 10 8 6 5 6 9 9 12 11 10 10 9 9 8 8 7 7 9 7 5 5 6 6 2 3 3 3 3 3 4 4 4 3 5 4 4 5
5 3 3 5 9 9 8 7 6 8 7 7 8 11 13 13 12 11 10 9 8 7 7 8 10 9 6 6 6 5 3 4 5 5 4 4 4 5 5 4 3 3 4 4
7 1 1 5 9 9 8 7 8 6 6 8 9 10 14 15 12 12 11 10 9 8 7 8 10 10 7 6 7 6 5 5 6 6 5 5 5 5 5 5 4 4 4 4
6 6 5 7 8 6 10 11 9 8 9 11 11 10 11 14 15 13 12 10 10 10 9 10 10 10 8 7 7 6 6 6 6 5 5 4 4 5 5 5 6 6 6 8
Wind_Direction
169 128 176 192 176 165 169 180 223 236 195 187 222 229 207 202 196 190 184 172 168 167 160 150 145 136 118 101 97 92 86 56 47 33 20 10 355 346 351 349 357 2 4 5
101 187 196 161 153 152 159 163 206 255 203 190 221 236 206 194 198 190 181 172 164 151 149 152 144 133 123 117 107 101 101 89 62 48 359 306 324 321 327 339 350 358 2 1
163 195 162 152 158 149 165 173 187 208 254 281 181 335 210 205 198 189 179 165 158 160 161 161 149 142 137 133 131 126 128 118 91 56 35 20 13 358 355 350 345 342 355 1
175 208 160 156 173 159 192 207 186 175 119 279 170 225 260 203 189 188 178 160 162 162 160 161 156 154 155 158 150 141 142 140 139 94 69 59 38 346 308 309 321 335 351 353
202 183 158 163 193 173 195 202 171 131 124 339 318 155 276 174 193 206 194 174 168 168 166 166 166 165 166 165 158 155 151 162 186 137 114 104 20 299 305 327 347 346 340 344
213 211 170 179 186 167 146 68 43 49 68 318 232 160 238 208 203 197 196 185 172 170 167 166 166 158 161 163 162 162 160 189 217 200 146 161 184 298 347 346 348 341 334 335
357 334 206 146 113 52 84 82 33 1 5 261 237 164 233 229 196 179 181 184 178 171 165 166 165 166 170 172 178 179 177 203 223 223 213 199 199 197 218 279 312 327 330 322
148 264 238 179 159 169 160 132 152 193 225 281 337 209 255 256 173 159 166 172 174 176 175 176 178 178 179 182 184 186 193 212 222 223 234 219 201 197 228 243 250 279 284 286
156 250 304 61 115 134 133 149 169 144 207 262 301 344 339 359 154 161 170 174 184 186 185 184 184 183 182 186 193 196 199 211 219 221 227 224 209 210 234 257 260 275 291 302
143 164 299 12 57 47 143 143 98 119 163 282 301 224 222 215 213 205 195 194 199 194 189 185 185 186 188 193 200 201 200 205 215 215 220 207 214 220 227 234 269 286 304 319
130 137 284 15 201 203 167 144 113 122 156 162 230 256 222 198 201 202 207 205 198 192 190 189 189 190 189 192 197 201 206 210 215 215 213 201 214 224 216 219 256 273 303 322
129 122 196 253 275 199 177 180 147 154 217 172 190 262 267 189 193 191 202 206 200 193 190 188 186 185 188 194 198 201 201 204 214 209 197 202 209 208 206 230 258 272 321 332
128 113 85 351 335 319 203 186 159 140 131 162 181 262 295 191 191 195 193 197 192 185 181 181 181 185 193 197 199 202 202 206 207 194 190 198 206 201 208 221 237 252 320 341
116 122 161 187 214 212 220 215 174 139 167 212 221 241 230 210 210 214 208 199 191 186 181 180 188 197 201 201 201 203 208 206 198 192 192 203 212 208 205 207 213 227 249 299
114 163 206 225 241 212 215 218 195 185 185 189 225 217 222 214 207 207 202 193 189 194 193 192 195 202 206 207 209 206 208 206 197 192 200 211 213 207 200 202 215 229 250 265
120 172 225 280 271 242 240 231 211 208 199 207 221 245 239 209 183 188 192 186 189 199 202 201 200 200 205 208 209 206 210 210 199 200 212 214 207 207 210 214 217 232 256 271
163 162 167 269 293 338 261 224 207 209 208 194 215 226 189 174 190 194 193 189 193 200 200 197 198 201 205 208 205 205 209 204 201 211 218 213 207 212 223 224 219 233 246 254
155 148 152 235 344 246 246 236 200 206 218 199 197 193 180 189 194 192 182 178 189 189 184 191 195 200 206 207 206 208 204 200 205 216 222 216 209 218 226 228 233 239 238 245
158 147 147 162 234 277 287 269 197 192 233 208 189 185 184 156 112 205 199 174 175 176 176 181 184 185 189 193 192 180 190 192 202 222 226 221 211 216 223 231 239 237 235 246
101 116 133 146 194 249 256 268 205 135 247 219 179 174 165 137 153 226 204 163 157 154 155 157 155 146 152 167 150 143 158 170 217 233 230 222 210 211 222 232 236 233 229 242
147 122 156 175 214 261 257 271 127 151 236 218 180 172 165 175 191 185 163 155 152 149 149 141 131 127 146 151 134 127 122 210 251 243 233 227 224 225 232 237 237 237 239 250
184 181 193 164 195 252 252 185 185 211 232 196 183 176 171 174 152 146 153 154 151 145 141 134 120 110 97 116 120 107 71 311 310 356 321 285 274 265 261 251 256 250 243 251
200 195 191 189 212 233 224 209 221 190 189 189 173 170 153 147 153 156 156 153 151 146 139 130 121 105 78 78 99 97 29 3 48 54 20 339 329 318 308 284 277 274 257 250
269 190 163 262 272 268 252 227 204 189 188 182 167 158 153 156 160 158 156 155 150 146 140 132 122 112 94 78 79 78 43 48 68 56 28 11 3 349 340 327 302 285 274 264
236 177 250 272 285 311 293 248 219 194 167 155 158 166 165 159 161 164 162 160 154 144 137 132 127 122 115 95 75 57 47 61 65 52 30 15 6 353 342 336 318 305 283 266
215 193 196 240 252 239 258 255 231 200 189 176 166 167 172 167 166 163 163 159 150 143 135 129 125 123 116 99 78 53 48 65 71 54 30 16 4 355 351 346 342 338 340 344
Height
1496 1505 1512 1512 1511 1513 1518 1522 1525 1519 1512 1517 1519 1518 1516 1517 1519 1519 1520 1521 1523 1524 1527 1527 1527 1527 1526 1525 1524 1522 1521 1519 1518 1516 1514 1512 1511 1509 1508 1506 1504 1503 1502 1500
1500 1506 1503 1504 1507 1510 1514 1520 1521 1515 1509 1514 1517 1516 1512 1514 1515 1516 1517 1519 1520 1523 1525 1526 1526 1526 1525 1524 1523 1522 1520 1519 1517 1515 1514 1512 1511 1509 1508 1506 1504 1503 1501 1500
1503 1502 1499 1503 1507 1512 1515 1517 1517 1516 1511 1511 1515 1521 1516 1513 1514 1516 1516 1516 1518 1520 1522 1523 1524 1524 1524 1523 1522 1521 1520 1518 1517 1515 1514 1512 1511 1509 1508 1506 1504 1503 1501 1499
1501 1497 1499 1503 1507 1510 1516 1507 1508 1511 1520 1526 1519 1536 1521 1515 1515 1515 1515 1515 1516 1518 1520 1521 1522 1523 1523 1522 1522 1521 1519 1518 1517 1515 1514 1512 1511 1509 1508 1506 1504 1503 1501 1499
1501 1497 1500 1504 1503 1503 1507 1502 1505 1509 1518 1526 1524 1533 1528 1516 1518 1514 1513 1513 1514 1516 1518 1519 1520 1521 1521 1521 1521 1520 1519 1518 1517 1515 1514 1512 1511 1509 1508 1506 1504 1502 1501 1499
1497 1495 1496 1498 1497 1498 1500 1506 1512 1521 1528 1538 1524 1531 1528 1519 1512 1510 1510 1511 1513 1515 1516 1518 1519 1520 1520 1520 1520 1519 1519 1518 1517 1515 1514 1512 1511 1509 1508 1506 1504 1502 1500 1499
1503 1498 1494 1494 1500 1500 1505 1522 1539 1539 1548 1540 1521 1524 1522 1506 1503 1504 1506 1509 1511 1513 1515 1516 1517 1518 1519 1519 1519 1519 1518 1517 1516 1515 1514 1512 1511 1509 1508 1506 1504 1502 1500 1498
1512 1512 1497 1493 1497 1504 1507 1519 1540 1546 1546 1537 1519 1523 1514 1502 1501 1502 1504 1507 1509 1511 1513 1514 1515 1516 1517 1518 1518 1518 1517 1516 1515 1515 1513 1512 1510 1509 1507 1506 1504 1502 1500 1498
1510 1510 1495 1492 1492 1497 1507 1515 1518 1532 1533 1537 1530 1520 1510 1504 1504 1504 1505 1506 1507 1509 1510 1512 1513 1515 1516 1516 1517 1517 1516 1515 1515 1514 1512 1511 1510 1508 1507 1505 1503 1501 1500 1498
1499 1507 1498 1494 1494 1496 1501 1508 1522 1530 1539 1542 1531 1526 1523 1510 1507 1504 1504 1505 1505 1507 1508 1510 1511 1513 1514 1515 1515 1515 1515 1514 1514 1513 1511 1510 1509 1508 1506 1504 1503 1501 1499 1497
1494 1506 1506 1500 1501 1504 1503 1506 1518 1531 1534 1542 1539 1529 1502 1501 1500 1501 1501 1502 1503 1504 1506 1508 1509 1511 1512 1513 1514 1514 1514 1513 1512 1511 1510 1509 1508 1506 1505 1503 1501 1500 1498 1496
1493 1506 1514 1506 1497 1495 1498 1503 1514 1528 1529 1533 1538 1525 1492 1493 1494 1496 1497 1499 1500 1502 1504 1506 1507 1509 1510 1511 1512 1512 1512 1512 1511 1510 1509 1508 1507 1505 1504 1502 1500 1498 1496 1494
1492 1506 1520 1518 1511 1500 1498 1499 1505 1515 1524 1532 1535 1519 1492 1493 1493 1494 1495 1496 1498 1500 1502 1504 1505 1507 1508 1509 1510 1510 1511 1511 1510 1509 1508 1507 1506 1504 1502 1501 1499 1497 1495 1493
1487 1502 1512 1518 1511 1502 1499 1496 1498 1509 1522 1523 1518 1509 1495 1493 1493 1492 1493 1494 1496 1497 1499 1501 1503 1504 1506 1507 1508 1509 1509 1509 1509 1508 1507 1506 1504 1503 1501 1500 1498 1496 1494 1492
1487 1498 1498 1497 1493 1493 1494 1492 1494 1500 1506 1512 1504 1498 1492 1488 1487 1488 1490 1492 1494 1495 1497 1498 1500 1502 1503 1505 1506 1506 1507 1507 1507 1507 1506 1505 1503 1502 1500 1499 1497 1495 1493 1492
1487 1494 1493 1494 1488 1489 1490 1488 1489 1491 1493 1496 1495 1493 1482 1481 1484 1486 1487 1489 1490 1492 1494 1495 1497 1499 1501 1502 1503 1504 1505 1505 1505 1505 1504 1503 1502 1501 1500 1498 1496 1495 1493 1491
1489 1493 1499 1504 1493 1490 1495 1483 1483 1484 1481 1485 1490 1485 1479 1482 1482 1483 1484 1485 1487 1489 1491 1492 1494 1496 1498 1499 1501 1501 1502 1503 1503 1503 1502 1502 1501 1500 1498 1497 1495 1494 1492 1490
1487 1494 1502 1505 1499 1504 1485 1466 1467 1471 1470 1471 1471 1471 1474 1475 1477 1479 1481 1483 1484 1486 1488 1490 1492 1493 1495 1497 1498 1499 1500 1501 1501 1501 1500 1500 1499 1498 1497 1495 1494 1492 1490 1488
1476 1488 1501 1507 1506 1498 1478 1463 1462 1469 1469 1462 1465 1467 1470 1473 1477 1479 1480 1481 1482 1484 1486 1488 1489 1491 1493 1494 1496 1497 1497 1498 1498 1498 1498 1497 1497 1496 1495 1494 1492 1490 1488 1487
1477 1481 1495 1504 1503 1502 1477 1456 1453 1459 1467 1456 1458 1462 1467 1471 1480 1478 1476 1478 1480 1482 1484 1486 1488 1489 1491 1492 1494 1494 1495 1495 1495 1495 1495 1495 1494 1493 1492 1491 1490 1488 1486 1484
1483 1487 1494 1500 1500 1489 1464 1454 1454 1472 1467 1451 1453 1456 1461 1464 1467 1469 1473 1476 1478 1480 1482 1484 1486 1487 1489 1490 1491 1492 1492 1492 1492 1492 1492 1491 1491 1490 1489 1488 1486 1485 1483 1481
1482 1488 1493 1497 1499 1487 1453 1454 1457 1455 1447 1448 1450 1452 1456 1459 1463 1466 1470 1473 1476 1478 1480 1482 1484 1485 1487 1488 1489 1489 1489 1489 1489 1489 1489 1488 1487 1486 1485 1483 1482 1481 1479 1477
1473 1470 1472 1473 1469 1451 1447 1447 1446 1446 1446 1446 1447 1449 1453 1457 1460 1464 1467 1471 1473 1476 1478 1479 1481 1482 1484 1485 1486 1486 1487 1486 1486 1486 1485 1484 1483 1481 1480 1478 1477 1476 1474 1473
1464 1459 1464 1464 1455 1447 1444 1443 1444 1444 1444 1445 1446 1448 1451 1454 1458 1461 1465 1468 1470 1473 1475 1477 1478 1480 1481 1482 1483 1483 1483 1483 1483 1482 1481 1479 1478 1476 1475 1474 1472 1470 1469 1467
1459 1457 1460 1459 1451 1446 1443 1442 1441 1442 1442 1443 1445 1447 1449 1452 1455 1458 1461 1464 1467 1470 1472 1474 1475 1477 1478 1479 1480 1480 1480 1480 1479 1478 1477 1475 1474 1472 1470 1469 1467 1466 1464 1463
1452 1454 1457 1456 1447 1448 1443 1441 1440 1439 1439 1440 1442 1444 1447 1449 1451 1454 1458 1461 1463 1466 1468 1470 1472 1474 1475 1476 1477 1477 1477 1476 1475 1474 1473 1472 1470 1468 1466 1465 1464 1462 1461 1459